GLENN Weather Reports


time (UTC)temp
C
wind
direction
speed
KPH
gust
KPH
rain 1hr
cm
rain 24hr
cm
rain mn
cm
humidity
%
barometer
mb
20260509030012 15 13 4.8 9.7 0.00 0.00 0.00 43 1013.5
20260509024514 15 5 3.2 14.5 0.00 0.00 0.00 44 1013.2
20260509023004 15 321 3.2 12.9 0.00 0.00 0.00 42 1012.9
20260509021507 15 32 3.2 9.7 0.00 0.00 0.00 40 1012.7
20260509020006 16 44 1.6 12.9 0.00 0.00 0.00 39 1012.8
20260509014530 17 13 0.0 6.4 0.00 0.00 0.00 39 1012.8
20260509013018 17 291 4.8 11.3 0.00 0.00 0.00 35 1012.5
20260509011505 17 250 3.2 14.5 0.00 0.00 0.00 38 1012.3
20260509010004 17 257 9.7 17.7 0.00 0.00 0.00 33 1012.2
20260509004513 18 304 1.6 3.2 0.00 0.00 0.00 32 1012.3
20260509003017 19 304 1.6 3.2 0.00 0.00 0.00 33 1012.2
20260509001527 19 9 1.6 3.2 0.00 0.00 0.00 31 1012.2
20260509000004 18 79 1.6 3.2 0.00 0.00 0.00 32 1012.2
20260508234509 18 78 1.6 3.2 0.00 0.00 0.00 32 1012.3
20260508233013 18 51 0.0 3.2 0.00 0.00 0.00 41 1012.5
20260508231516 17 352 0.0 4.8 0.00 0.00 0.00 37 1012.6
20260508230023 17 64 0.0 3.2 0.00 0.00 0.00 36 1012.7
20260508224509 18 69 0.0 3.2 0.00 0.00 0.00 36 1012.8
20260508223013 18 360 0.0 3.2 0.00 0.00 0.00 36 1012.8
20260508221515 18 352 0.0 8.0 0.00 0.00 0.00 36 1012.8
20260508220100 18 34 3.2 14.5 0.00 0.00 0.00 35 1013.0
20260508214525 18 304 4.8 8.0 0.00 0.00 0.00 36 1013.2
20260508213010 18 337 4.8 14.5 0.00 0.00 0.00 39 1013.3
20260508211520 18 344 3.2 4.8 0.00 0.00 0.00 41 1013.7
20260508210021 18 9 3.2 14.5 0.00 0.00 0.00 38 1013.9
20260508204524 18 24 3.2 11.3 0.00 0.00 0.00 41 1013.9
20260508203005 17 329 3.2 9.7 0.00 0.00 0.00 42 1014.2
20260508201513 18 5 1.6 6.4 0.00 0.00 0.00 42 1014.2
20260508200015 17 38 3.2 9.7 0.00 0.00 0.00 45 1014.4
20260508194522 17 308 6.4 16.1 0.00 0.00 0.00 39 1014.5
20260508193028 17 279 8.0 16.1 0.00 0.00 0.00 40 1014.5
20260508191515 17 241 4.8 16.1 0.00 0.00 0.00 44 1014.7
20260508190016 17 323 8.0 14.5 0.00 0.00 0.00 43 1014.7
20260508184526 17 342 6.4 14.5 0.00 0.00 0.00 41 1015.0
20260508183024 17 332 6.4 17.7 0.00 0.00 0.00 42 1015.2
20260508181509 16 350 1.6 9.7 0.00 0.00 0.00 43 1015.4
20260508180012 16 18 4.8 14.5 0.00 0.00 0.00 47 1015.5
20260508174507 16 26 3.2 9.7 0.00 0.00 0.00 46 1015.8
20260508173005 15 321 6.4 12.9 0.00 0.00 0.00 46 1016.0
20260508171507 15 309 4.8 12.9 0.00 0.00 0.00 50 1016.1
20260508170013 15 323 3.2 11.3 0.00 0.00 0.00 50 1016.1
20260508164513 15 278 3.2 9.7 0.00 0.00 0.00 51 1016.2
20260508163004 14 281 3.2 9.7 0.00 0.00 0.00 54 1016.4
20260508161507 13 265 3.2 8.0 0.00 0.00 0.00 51 1016.5
20260508160010 13 281 4.8 11.3 0.00 0.00 0.00 57 1016.5
20260508154512 13 27 1.6 4.8 0.00 0.00 0.00 56 1016.6
20260508153020 13 321 1.6 4.8 0.00 0.00 0.00 58 1016.6
20260508151505 12 166 1.6 4.8 0.00 0.00 0.00 58 1016.5
20260508150009 12 9 0.0 3.2 0.00 0.00 0.00 59 1016.6
20260508144510 11 188 0.0 3.2 0.00 0.00 0.00 63 1016.6
20260508143023 11 217 1.6 3.2 0.00 0.00 0.00 64 1016.7
20260508141519 10 193 1.6 3.2 0.00 0.00 0.00 64 1016.8
20260508140015 10 232 1.6 1.6 0.00 0.00 0.00 63 1016.9
20260508134510 10 111 0.0 3.2 0.00 0.00 0.00 67 1016.8
20260508133012 8 92 3.2 6.4 0.00 0.00 0.00 70 1016.7
20260508131519 7 97 0.0 0.0 0.00 0.00 0.00 72 1016.8
20260508130024 6 102 0.0 0.0 0.00 0.00 0.00 73 1016.6
20260508124511 6 92 0.0 0.0 0.00 0.00 0.00 74 1016.6
20260508123012 6 101 0.0 0.0 0.00 0.00 0.00 75 1016.5
20260508121526 7 169 0.0 3.2 0.00 0.00 0.00 69 1016.4
20260508120022 7 103 3.2 4.8 0.00 0.00 0.00 69 1016.2
20260508114524 7 79 1.6 4.8 0.00 0.00 0.00 69 1016.2
20260508113014 7 83 1.6 3.2 0.00 0.00 0.00 69 1016.3
20260508111512 7 103 0.0 3.2 0.00 0.00 0.00 71 1016.2
20260508110018 7 115 4.8 4.8 0.00 0.10 0.00 72 1016.1
20260508104522 6 111 4.8 6.4 0.00 0.10 0.00 77 1016.1
20260508103033 6 140 0.0 3.2 0.00 0.10 0.00 76 1016.1
20260508101512 7 138 1.6 3.2 0.00 0.10 0.00 69 1016.0
20260508100023 7 88 3.2 4.8 0.00 0.10 0.00 71 1015.9
20260508094522 7 78 1.6 3.2 0.00 0.10 0.00 73 1016.1
20260508093024 7 360 1.6 3.2 0.00 0.10 0.00 72 1016.1
20260508091511 7 49 0.0 3.2 0.00 0.10 0.00 69 1016.0
20260508090013 8 63 0.0 0.0 0.00 0.10 0.00 66 1015.9
20260508084518 8 112 1.6 6.4 0.00 0.10 0.00 66 1015.9
20260508083024 8 66 1.6 3.2 0.00 0.10 0.00 66 1016.0
20260508081524 8 85 0.0 3.2 0.00 0.10 0.00 64 1016.0
20260508080013 8 127 0.0 1.6 0.00 0.10 0.00 68 1016.1
20260508074516 7 137 1.6 4.8 0.00 0.15 0.00 71 1016.0
20260508073019 7 132 0.0 3.2 0.00 0.20 0.00 71 1016.0
20260508071538 8 110 4.8 9.7 0.00 0.23 0.00 66 1015.9
20260508070008 8 17 0.0 4.8 0.00 0.23 0.00 65 1015.9
20260508064512 9 128 1.6 3.2 0.00 0.23 0.00 62 1016.0
20260508063029 10 108 1.6 4.8 0.00 0.23 0.00 61 1015.9
20260508061523 10 92 4.8 11.3 0.00 0.23 0.00 62 1015.9
20260508060033 9 84 1.6 3.2 0.00 0.23 0.00 67 1015.9
20260508054512 9 230 0.0 3.2 0.00 0.23 0.23 67 1015.9
20260508053018 10 241 1.6 9.7 0.00 0.23 0.23 62 1015.9
20260508051519 11 103 6.4 9.7 0.00 0.23 0.23 59 1015.8
20260508050025 11 94 6.4 9.7 0.00 0.23 0.23 59 1015.8
20260508044528 10 118 6.4 9.7 0.00 0.23 0.23 60 1015.9
20260508043014 11 112 4.8 9.7 0.00 0.23 0.23 59 1015.8
20260508041520 11 109 4.8 6.4 0.00 0.23 0.23 59 1015.8
20260508040023 11 114 4.8 6.4 0.00 0.23 0.23 60 1015.7
20260508034527 11 112 4.8 4.8 0.00 0.23 0.23 62 1015.6
20260508033028 11 111 4.8 6.4 0.00 0.23 0.23 61 1015.6
20260508031518 11 107 4.8 8.0 0.00 0.23 0.23 62 1015.4